Showing default

USA 486, 62757

Orbit data source: Space-Track

USA 486, 62757 is a payload satellite owned by NRO (US) in LEO that was launched on Tue, 21 Jan 2025 UTC via an FALCON 9 launch vehicle from the Air Force Eastern Test Range (AFETR). Payload-class satellites include a variety of spacecraft equipped with specific instruments for various scientific and technological missions. These include communications satellites like Starlink; space stations such as the ISS; scientific satellites like the Hubble; Earth observation satellites from companies like Planet Labs, Umbra, and HawkEye 360; GPS; miniature CubeSats for education and research; and military/defense satellites.

Not visible in the next 10 days
Identifier
62757, 2025-014Y
Orbit
LEO
Country
Flag of USUS
Related business
Manufacturer
SpaceX/Seattle
Mission
Operational Defense Imaging
Bus & Motor
STARSHIELD, Unknown motor
Mass
800 kg wet, ~750 kg dry
Launch date (UTC)
2025-01-21 (1 year ago)
Launch vehicle
FALCON 9
Launch site
Air Force Eastern Test Range (AFETR)
Object type
Payload
Rocket body
Debris
Shape & HBR
Box + 1 Pan, 2.0 m
Radar Cross Section
41.120 m², Large (>1 m²)

Expand to show TLE details & history
Last TLE update: 16 hours ago

TLE from 16 hours ago
0 USA 486
1 62757U 25014Y   26171.20102166  .00142772  00000-0  86484-3 0  9990
2 62757  42.9994  92.5215 0001649 262.8611  97.2072 15.76371546 81254
Epoch: 2026-06-20T04:49Z
TLE epoch observation values (Epoch: 2026-06-20T04:49:28.271Z)
Latitude
0.00004°
Longitude
111.7347°
Altitude
340.641 km
Speed
7.706 km/s
True Right ascension
06h 10m 05s
True Declination
0° 00' 00"
Sunlit
Object was in daylight at epoch
Visualization orbit readout
Latitude
Unknown
Longitude
Unknown
Altitude
Unknown
Speed
Unknown
Apparent Right ascension
Unknown
Apparent Declination
Unknown
Sunlit
N/A
Visualization observer readout
Local Sidereal Time
07:24:12
Azimuth
Unknown
Elevation
Unknown
Doppler factor
Unknown
Orbital elements
Apogee altitude
343.826 km
Perigee altitude
341.609 km
Semi-major axis
6,720.854 km
Eccentricity
0.00016
Inclination
42.9994°
RAAN
92.5215°
Arg. of periapsis
262.8611°
True anomaly
97.22595°
Mean anomaly
97.2072°
Eccentric anomaly
97.21657°
Mean motion
3.93919 °/min
Orbital period
91.39 mins
BSTAR
0.00086484
Loading maneuver chart data...
Computing Atmospheric mass density...
Loading historical data...
Loading historical data...
Loading historical data...
Loading historical data...
Loading historical data...
Loading historical data...
Loading historical data...

Documentation

Showing up to 5 results
|